Tracking 22836 objects as of 18-Apr-2021
HD Live streaming from Space Station
objects crossing your sky now

GB 2

Track GB 2 now!
10-day predictions
GB 2 is classified as:


NORAD ID: 14144
Int'l Code: 1983-056D
Perigee: 385.8 km
Apogee: 1,733.9 km
Inclination: 63.3 °
Period: 106.2 minutes
Semi major axis: 7430 km
RCS: Unknown
Launch date: June 9, 1983
Source: United States (US)
Launch site: AIR FORCE WESTERN TEST RANGE (AFWTR)
aabbcc
Your satellite tracking list
Your tracking list is empty




NASA's NSSDC Master Catalog

Two Line Element Set (TLE):
1 14144U 83056D   21108.05265126  .00002578  00000-0  20703-3 0  9992
2 14144  63.2975 324.6966 0907042  98.1753 272.3051 13.55328426 98285
Source of the keplerian elements: McCants